Tracking 20712 objects as of 29-May-2020
HD Live streaming from Space Station
objects crossing your sky now

SL-8 R/B

Track SL-8 R/B now!
10-day predictions


NORAD ID: 21108
Int'l Code: 1991-009J
Perigee: 1,465.8 km
Apogee: 1,746.9 km
Inclination: 74.1 °
Period: 118.2 minutes
Semi major axis: 7977 km
RCS: 5.6696 m2 (large)
Launch date: February 12, 1991
Source: Commonwealth of Independent States (former USSR) (CIS)
Launch site: PLESETSK MISSILE AND SPACE COMPLEX (PKMTR)

Note: This is a ROCKET BODY
aabbcc
Your satellite tracking list
Your tracking list is empty




NASA's NSSDC Master Catalog

Two Line Element Set (TLE):
1 21108U 91009J   20150.38910168 -.00000129 +00000-0 -10743-2 0  9996
2 21108 074.0506 127.8327 0176202 209.3594 263.3318 12.18473316196486
Source of the keplerian elements: AFSPC